Weather History for Adak, AK

Change the Weather History Date:

Wednesday, March 20, 2013

  Actual Average Record
Temperature  
Mean Temperature 37 °F -  
Max Temperature 39 °F 38 °F 47 °F (1965)
Min Temperature 35 °F 28 °F 15 °F (1985)
Degree Days  
Heating Degree Days 28    
Moisture  
Dew Point 32 °F    
Average Humidity 80    
Maximum Humidity 93    
Minimum Humidity 67    
Precipitation  
Precipitation 0.31 in - - ()
Sea Level Pressure  
Sea Level Pressure 30.09 in    
Wind  
Wind Speed 14 mph (SSE)    
Max Wind Speed 22 mph    
Max Gust Speed 30 mph    
Visibility 10 miles    
Events      
Averages and records for this station are not official NWS values.
T = Trace of Precipitation, MM = Missing Value Source: NWS Daily Summary

Daily Weather History Graph

Daily Weather History Graph

Search for Another Location

Airport:

Trip Planner

Search our weather history database for the weather conditions in past years. The results will help you decide how hot, cold, wet, or windy it might be!

Date:

Astronomy

Mar. 20, 2013 Rise Set
Actual Time 8:47 AM HADT 9:00 PM HADT
Civil Twilight 8:14 AM HADT 9:34 PM HADT
Nautical Twilight 7:34 AM HADT 10:14 PM HADT
Astronomical Twilight 6:53 AM HADT 10:55 PM HADT
Moon 2:10 PM HADT 5:17 AM HADT
Length of Visible Light 13h 20m
Length of Day
12h 12m
First Quarter, 61% of the Moon is Illuminated
Mar 20
First Quarter
Mar 27
Full
Apr 2
Last Quarter
Apr 10
New
Apr 18
First Quarter

Hourly Weather History & Observations

Time (HADT) Temp. Windchill Dew Point Humidity Pressure Visibility Wind Dir Wind Speed Gust Speed Precip Events Conditions
12:16 AM 37.4 °F 27.2 °F 33.8 °F 87% 30.16 in 10.0 mi ESE 19.6 mph 25.3 mph N/A   Overcast
12:36 AM 37.4 °F 26.9 °F 32.0 °F 81% 30.16 in 10.0 mi East 20.7 mph - N/A   Overcast
12:56 AM 37.4 °F 26.6 °F 33.8 °F 87% 30.15 in 10.0 mi East 21.9 mph 26.5 mph N/A   Overcast
1:16 AM 37.4 °F 26.9 °F 32.0 °F 81% 30.15 in 10.0 mi ESE 20.7 mph 29.9 mph N/A   Overcast
1:36 AM 37.4 °F 27.5 °F 32.0 °F 81% 30.15 in 10.0 mi ESE 18.4 mph - N/A   Overcast
1:56 AM 35.6 °F 24.8 °F 32.0 °F 87% 30.15 in 10.0 mi ESE 19.6 mph - N/A   Overcast
2:16 AM 35.6 °F 25.9 °F 32.0 °F 87% 30.15 in 10.0 mi East 16.1 mph - N/A   Overcast
2:36 AM 35.6 °F 26.2 °F 32.0 °F 87% 30.15 in 10.0 mi ESE 15.0 mph - N/A   Overcast
2:56 AM 35.6 °F 26.2 °F 32.0 °F 87% 30.14 in 10.0 mi ESE 15.0 mph - N/A   Overcast
3:16 AM 35.6 °F 25.9 °F 32.0 °F 87% 30.14 in 10.0 mi East 16.1 mph - N/A   Overcast
3:36 AM 35.6 °F 25.2 °F 32.0 °F 87% 30.14 in 10.0 mi ESE 18.4 mph - N/A   Overcast
3:56 AM 35.6 °F 25.5 °F 32.0 °F 87% 30.13 in 10.0 mi East 17.3 mph - N/A   Overcast
4:16 AM 35.6 °F 25.9 °F 32.0 °F 87% 30.12 in 10.0 mi ESE 16.1 mph - N/A   Overcast
4:36 AM 35.6 °F 26.6 °F 32.0 °F 87% 30.12 in 10.0 mi East 13.8 mph - N/A   Overcast
4:56 AM 35.6 °F 26.6 °F 32.0 °F 87% 30.11 in 10.0 mi ESE 13.8 mph - N/A   Overcast
5:16 AM 35.6 °F 27.5 °F 32.0 °F 87% 30.11 in 10.0 mi ESE 11.5 mph - N/A   Overcast
5:36 AM 35.6 °F 27.1 °F 33.8 °F 93% 30.11 in 10.0 mi ESE 12.7 mph - N/A   Overcast
5:56 AM 35.6 °F 27.1 °F 30.2 °F 81% 30.10 in 10.0 mi ESE 12.7 mph - N/A   Overcast
6:16 AM 37.4 °F 28.9 °F 32.0 °F 81% 30.10 in 10.0 mi ESE 13.8 mph - N/A   Overcast
6:36 AM 37.4 °F 28.9 °F 30.2 °F 75% 30.10 in 10.0 mi ESE 13.8 mph - N/A   Overcast
6:56 AM 37.4 °F 29.3 °F 30.2 °F 75% 30.09 in 10.0 mi ESE 12.7 mph - N/A   Overcast
7:16 AM 37.4 °F 29.8 °F 28.4 °F 70% 30.09 in 10.0 mi ESE 11.5 mph - N/A   Overcast
7:36 AM 37.4 °F 28.9 °F 30.2 °F 75% 30.10 in 10.0 mi SE 13.8 mph - N/A   Overcast
7:56 AM 37.4 °F 29.8 °F 30.2 °F 75% 30.10 in 10.0 mi SE 11.5 mph - N/A   Overcast
8:16 AM 37.4 °F 28.9 °F 30.2 °F 75% 30.10 in 10.0 mi SE 13.8 mph 17.3 mph N/A   Overcast
8:36 AM 37.4 °F 30.3 °F 30.2 °F 75% 30.10 in 10.0 mi SE 10.4 mph - N/A   Overcast
8:56 AM 37.4 °F 29.3 °F 30.2 °F 75% 30.10 in 10.0 mi SE 12.7 mph - N/A   Overcast
9:16 AM 37.4 °F 31.4 °F 30.2 °F 75% 30.10 in 10.0 mi SSE 8.1 mph - N/A   Overcast
9:36 AM 37.4 °F 30.3 °F 30.2 °F 75% 30.11 in 10.0 mi SE 10.4 mph - N/A   Overcast
9:56 AM 37.4 °F 31.4 °F 30.2 °F 75% 30.11 in 10.0 mi SE 8.1 mph - N/A   Overcast
10:16 AM 37.4 °F 31.4 °F 30.2 °F 75% 30.11 in 10.0 mi SE 8.1 mph - N/A   Overcast
10:36 AM 37.4 °F 29.3 °F 30.2 °F 75% 30.10 in 10.0 mi SE 12.7 mph - 0.03 in   Overcast
10:56 AM 37.4 °F 31.4 °F 30.2 °F 75% 30.10 in 10.0 mi SSE 8.1 mph - 0.05 in   Overcast
11:16 AM 37.4 °F 30.3 °F 30.2 °F 75% 30.11 in 10.0 mi SSE 10.4 mph - N/A   Overcast
11:36 AM 37.4 °F 30.3 °F 30.2 °F 75% 30.11 in 10.0 mi SSE 10.4 mph - N/A   Overcast
11:56 AM 37.4 °F 29.8 °F 30.2 °F 75% 30.11 in 10.0 mi SSE 11.5 mph - 0.01 in   Overcast
12:16 PM 39.2 °F 33.0 °F 30.2 °F 70% 30.11 in 10.0 mi SE 9.2 mph - 0.03 in   Overcast
12:36 PM 39.2 °F 31.2 °F 33.8 °F 81% 30.11 in 10.0 mi SE 13.8 mph - 0.07 in   Overcast
12:56 PM 39.2 °F 32.5 °F 33.8 °F 81% 30.10 in 10.0 mi ESE 10.4 mph - 0.12 in   Overcast
1:16 PM 39.2 °F 35.0 °F 32.0 °F 75% 30.10 in 10.0 mi SSE 5.8 mph - 0.06 in   Overcast
1:36 PM 39.2 °F 33.0 °F 32.0 °F 75% 30.10 in 10.0 mi South 9.2 mph - 0.14 in   Overcast
1:56 PM 39.2 °F 33.6 °F 33.8 °F 81% 30.10 in 10.0 mi South 8.1 mph - 0.15 in   Overcast
2:16 PM 39.2 °F 32.5 °F 32.0 °F 75% 30.09 in 10.0 mi South 10.4 mph - N/A   Overcast
2:36 PM 39.2 °F 32.0 °F 32.0 °F 75% 30.09 in 10.0 mi SSE 11.5 mph - N/A   Overcast
2:56 PM 39.2 °F 33.6 °F 32.0 °F 75% 30.09 in 10.0 mi South 8.1 mph - N/A   Overcast
3:16 PM 39.2 °F 31.6 °F 32.0 °F 75% 30.08 in 10.0 mi South 12.7 mph - N/A   Overcast
3:36 PM 39.2 °F 33.0 °F 33.8 °F 81% 30.07 in 10.0 mi SSE 9.2 mph - N/A   Overcast
3:56 PM 39.2 °F 33.0 °F 32.0 °F 75% 30.06 in 10.0 mi South 9.2 mph - N/A   Overcast
4:16 PM 39.2 °F 32.5 °F 32.0 °F 75% 30.06 in 10.0 mi South 10.4 mph - 0.02 in   Overcast
4:36 PM 39.2 °F 32.0 °F 32.0 °F 75% 30.05 in 10.0 mi South 11.5 mph 17.3 mph 0.04 in   Overcast
4:56 PM 39.2 °F 33.6 °F 33.8 °F 81% 30.06 in 10.0 mi South 8.1 mph - 0.08 in   Overcast
5:16 PM 39.2 °F 32.5 °F 33.8 °F 81% 30.06 in 10.0 mi South 10.4 mph - N/A   Overcast
5:36 PM 39.2 °F 33.0 °F 33.8 °F 81% 30.06 in 10.0 mi South 9.2 mph - N/A   Overcast
5:56 PM 39.2 °F 34.2 °F 32.0 °F 75% 30.06 in 10.0 mi South 6.9 mph - N/A   Overcast
6:16 PM 39.2 °F 33.0 °F 32.0 °F 75% 30.07 in 10.0 mi South 9.2 mph - N/A   Overcast
6:36 PM 39.2 °F 33.0 °F 32.0 °F 75% 30.07 in 10.0 mi South 9.2 mph - N/A   Overcast
6:56 PM 39.2 °F 34.2 °F 33.8 °F 81% 30.06 in 10.0 mi South 6.9 mph - N/A   Overcast
7:16 PM 39.2 °F 34.2 °F 33.8 °F 81% 30.05 in 10.0 mi South 6.9 mph - N/A   Overcast
7:36 PM 37.4 °F 31.4 °F 33.8 °F 87% 30.04 in 10.0 mi South 8.1 mph - N/A   Overcast
7:56 PM 37.4 °F 30.8 °F 33.8 °F 87% 30.04 in 10.0 mi SSE 9.2 mph - N/A   Overcast
8:16 PM 37.4 °F 32.8 °F 33.8 °F 87% 30.04 in 9.0 mi South 5.8 mph - N/A   Overcast
8:36 PM 37.4 °F 31.4 °F 33.8 °F 87% 30.04 in 10.0 mi South 8.1 mph - N/A   Overcast
8:56 PM 37.4 °F 31.4 °F 32.0 °F 81% 30.05 in 10.0 mi SSW 8.1 mph - N/A   Overcast
9:16 PM 37.4 °F 30.8 °F 33.8 °F 87% 30.05 in 10.0 mi South 9.2 mph - N/A   Overcast
9:36 PM 37.4 °F 31.4 °F 33.8 °F 87% 30.04 in 10.0 mi SSW 8.1 mph - N/A   Overcast
9:56 PM 37.4 °F 31.4 °F 33.8 °F 87% 30.04 in 10.0 mi South 8.1 mph - N/A   Overcast
10:16 PM 37.4 °F 30.8 °F 33.8 °F 87% 30.04 in 10.0 mi SSW 9.2 mph - 0.07 in   Overcast
10:36 PM 37.4 °F 32.1 °F 33.8 °F 87% 30.04 in 10.0 mi SSW 6.9 mph - 0.09 in   Overcast
10:56 PM 37.4 °F 32.1 °F 33.8 °F 87% 30.04 in 10.0 mi SSW 6.9 mph - 0.09 in   Overcast
11:16 PM 37.4 °F 30.8 °F 33.8 °F 87% 30.04 in 10.0 mi SSW 9.2 mph - N/A   Overcast
11:36 PM 37.4 °F 30.8 °F 33.8 °F 87% 30.03 in 10.0 mi SSW 9.2 mph - N/A   Overcast
11:56 PM 37.4 °F 31.4 °F 33.8 °F 87% 30.03 in 10.0 mi South 8.1 mph - 0.02 in   Overcast